When you browse on this site, cookies collect data to enhance your experience and personalize the content and advertising you see.
Visit our Privacy Policy to learn more. By continuing to use the site, you agree to this use of cookies and data.
  • în România
  • Lista ţărilor
  • Pe 7 zile
  • Temperatura apei
  • Hartă satelitară
  • Meteo pe hartă
  • Widget-uri
  • user-avatar
    Intrare

    Meteo pe oră la Satif

    Astăzi, 22 Martie, Vineri

    Timp Temperatura Precipitaţii Vânt Presiune Umiditate
    00:00 +5°C° 1.6 mm 4 m/s 671 mmHg 96%
    01:00 +5°C° 2.2 mm 4 m/s 670 mmHg 96%
    02:00 +5°C° 2.2 mm 4 m/s 670 mmHg 96%
    03:00 +5°C° 2.2 mm 3 m/s 670 mmHg 96%
    04:00 +5°C° 1.8 mm 3 m/s 670 mmHg 96%
    05:00 +5°C° 1.8 mm 3 m/s 671 mmHg 96%
    06:00 +5°C° 1.8 mm 3 m/s 671 mmHg 96%
    07:00 +5°C° 2.4 mm 3 m/s 671 mmHg 96%
    08:00 +5°C° 2.4 mm 3 m/s 671 mmHg 95%
    09:00 +5°C° 2.4 mm 3 m/s 672 mmHg 95%
    10:00 +7°C° 1.5 mm 3 m/s 672 mmHg 91%
    11:00 +7°C° 1.5 mm 3 m/s 672 mmHg 86%
    12:00 +8°C° 1.5 mm 3 m/s 672 mmHg 82%
    13:00 +8°C° 0.2 mm 3 m/s 672 mmHg 79%
    14:00 +8°C° 0.2 mm 4 m/s 672 mmHg 75%
    15:00 +8°C° 0.2 mm 4 m/s 672 mmHg 72%
    16:00 +7°C° 0 mm 4 m/s 672 mmHg 76%
    17:00 +6°C° 0 mm 4 m/s 672 mmHg 79%
    18:00 +5°C° 0 mm 4 m/s 672 mmHg 83%
    19:00 +5°C° 0 mm 3 m/s 673 mmHg 86%
    20:00 +4°C° 0 mm 3 m/s 673 mmHg 88%
    21:00 +5°C° 0 mm 2 m/s 673 mmHg 91%
    22:00 +5°C° 0 mm 2 m/s 673 mmHg 92%
    23:00 +4°C° 0 mm 2 m/s 673 mmHg 93%

    Mâine, 23 Martie, Sâmbătă

    Timp Temperatura Precipitaţii Vânt Presiune Umiditate
    00:00 +4°C° 0 mm 2 m/s 673 mmHg 94%
    01:00 +4°C° 0.4 mm 2 m/s 673 mmHg 94%
    02:00 +4°C° 0.4 mm 2 m/s 673 mmHg 93%
    03:00 +4°C° 0.4 mm 2 m/s 673 mmHg 92%
    04:00 +4°C° 0.1 mm 2 m/s 673 mmHg 92%
    05:00 +4°C° 0.1 mm 2 m/s 673 mmHg 91%
    06:00 +4°C° 0.1 mm 2 m/s 673 mmHg 91%
    07:00 +5°C° 0 mm 2 m/s 674 mmHg 90%
    08:00 +6°C° 0 mm 2 m/s 675 mmHg 88%
    09:00 +7°C° 0 mm 3 m/s 675 mmHg 87%
    10:00 +7°C° 0.1 mm 3 m/s 675 mmHg 84%
    11:00 +7°C° 0.1 mm 4 m/s 675 mmHg 82%
    12:00 +8°C° 0.1 mm 4 m/s 675 mmHg 79%
    13:00 +8°C° 0.1 mm 4 m/s 675 mmHg 77%
    14:00 +10°C° 0.1 mm 4 m/s 675 mmHg 75%
    15:00 +10°C° 0.1 mm 4 m/s 675 mmHg 73%
    16:00 +8°C° 0 mm 4 m/s 675 mmHg 77%
    17:00 +9°C° 0 mm 3 m/s 675 mmHg 81%
    18:00 +8°C° 0 mm 3 m/s 675 mmHg 86%
    19:00 +7°C° 0 mm 2 m/s 675 mmHg 89%
    20:00 +6°C° 0 mm 2 m/s 675 mmHg 92%
    21:00 +6°C° 0 mm 1 m/s 675 mmHg 96%
    22:00 +6°C° 0 mm 1 m/s 675 mmHg 95%
    23:00 +6°C° 0 mm 1 m/s 675 mmHg 95%

    Poimâine, 24 Martie, Duminică

    Timp Temperatura Precipitaţii Vânt Presiune Umiditate
    00:00 +5°C° 0 mm 1 m/s 675 mmHg 95%
    01:00 +5°C° 0 mm 1 m/s 675 mmHg 94%
    02:00 +5°C° 0 mm 1 m/s 675 mmHg 94%
    03:00 +5°C° 0 mm 1 m/s 674 mmHg 93%
    04:00 +5°C° 0 mm 1 m/s 674 mmHg 92%
    05:00 +5°C° 0 mm 1 m/s 675 mmHg 92%
    06:00 +5°C° 0 mm 1 m/s 675 mmHg 91%
    07:00 +7°C° 0 mm 1 m/s 676 mmHg 82%
    08:00 +9°C° 0 mm 1 m/s 676 mmHg 73%
    09:00 +11°C° 0 mm 1 m/s 677 mmHg 64%
    10:00 +12°C° 0 mm 1 m/s 677 mmHg 59%
    11:00 +13°C° 0 mm 1 m/s 677 mmHg 53%
    12:00 +15°C° 0 mm 1 m/s 677 mmHg 48%
    13:00 +15°C° 0 mm 2 m/s 677 mmHg 48%
    14:00 +15°C° 0 mm 2 m/s 677 mmHg 49%
    15:00 +15°C° 0 mm 2 m/s 676 mmHg 49%
    16:00 +14°C° 0.1 mm 2 m/s 676 mmHg 55%
    17:00 +13°C° 0.1 mm 1 m/s 676 mmHg 61%
    18:00 +12°C° 0.1 mm 1 m/s 676 mmHg 67%
    19:00 +11°C° 0 mm 1 m/s 676 mmHg 69%
    20:00 +10°C° 0 mm 1 m/s 676 mmHg 71%
    21:00 +9°C° 0 mm 1 m/s 676 mmHg 73%
    22:00 +9°C° 0 mm 1 m/s 675 mmHg 71%
    23:00 +9°C° 0 mm 1 m/s 675 mmHg 69%

    25 Martie, Luni

    Timp Temperatura Precipitaţii Vânt Presiune Umiditate
    00:00 +9°C° 0 mm 1 m/s 675 mmHg 68%
    01:00 +8°C° 0 mm 1 m/s 675 mmHg 67%
    02:00 +7°C° 0 mm 2 m/s 674 mmHg 66%
    03:00 +7°C° 0 mm 2 m/s 674 mmHg 65%
    04:00 +6°C° 0 mm 2 m/s 674 mmHg 67%
    05:00 +6°C° 0 mm 2 m/s 674 mmHg 68%
    06:00 +6°C° 0 mm 2 m/s 674 mmHg 70%
    07:00 +8°C° 0 mm 2 m/s 675 mmHg 62%
    08:00 +10°C° 0 mm 2 m/s 676 mmHg 55%
    09:00 +13°C° 0 mm 2 m/s 676 mmHg 48%
    10:00 +14°C° 0 mm 2 m/s 676 mmHg 45%
    11:00 +15°C° 0 mm 2 m/s 676 mmHg 42%
    12:00 +16°C° 0 mm 2 m/s 676 mmHg 38%
    13:00 +16°C° 0 mm 2 m/s 676 mmHg 38%
    14:00 +17°C° 0 mm 2 m/s 676 mmHg 38%
    15:00 +17°C° 0 mm 2 m/s 675 mmHg 38%
    16:00 +16°C° 0 mm 1 m/s 675 mmHg 46%
    17:00 +14°C° 0 mm 1 m/s 675 mmHg 53%
    18:00 +13°C° 0 mm 1 m/s 674 mmHg 61%
    19:00 +12°C° 0 mm 1 m/s 674 mmHg 66%
    20:00 +11°C° 0 mm 1 m/s 675 mmHg 71%
    21:00 +10°C° 0 mm 1 m/s 675 mmHg 76%
    22:00 +10°C° 0 mm 1 m/s 674 mmHg 77%
    23:00 +10°C° 0 mm 1 m/s 674 mmHg 78%

    26 Martie, Marţi

    Timp Temperatura Precipitaţii Vânt Presiune Umiditate
    00:00 +9°C° 0 mm 1 m/s 674 mmHg 79%
    01:00 +9°C° 0 mm 1 m/s 674 mmHg 79%
    02:00 +9°C° 0 mm 1 m/s 673 mmHg 79%
    03:00 +8°C° 0 mm 1 m/s 673 mmHg 78%
    04:00 +8°C° 0 mm 1 m/s 673 mmHg 76%
    05:00 +8°C° 0 mm 1 m/s 673 mmHg 74%
    06:00 +8°C° 0 mm 1 m/s 673 mmHg 71%
    07:00 +9°C° 0 mm 0 m/s 674 mmHg 62%
    08:00 +12°C° 0 mm 0 m/s 675 mmHg 52%
    09:00 +14°C° 0 mm 0 m/s 676 mmHg 42%
    10:00 +15°C° 0 mm 0 m/s 676 mmHg 40%
    11:00 +18°C° 0 mm 1 m/s 676 mmHg 38%
    12:00 +19°C° 0 mm 1 m/s 676 mmHg 36%
    13:00 +19°C° 0 mm 1 m/s 676 mmHg 36%
    14:00 +19°C° 0 mm 1 m/s 676 mmHg 37%
    15:00 +18°C° 0 mm 2 m/s 676 mmHg 37%
    16:00 +17°C° 0 mm 2 m/s 675 mmHg 46%
    17:00 +16°C° 0 mm 2 m/s 675 mmHg 55%
    18:00 +13°C° 0 mm 3 m/s 674 mmHg 64%
    19:00 +13°C° 0 mm 2 m/s 675 mmHg 70%
    20:00 +12°C° 0 mm 2 m/s 675 mmHg 77%
    21:00 +12°C° 0 mm 2 m/s 675 mmHg 83%
    22:00 +10°C° 0 mm 2 m/s 675 mmHg 85%
    23:00 +10°C° 0 mm 2 m/s 675 mmHg 86%

    27 Martie, Miercuri

    Timp Temperatura Precipitaţii Vânt Presiune Umiditate
    00:00 +10°C° 0 mm 2 m/s 674 mmHg 88%
    01:00 +9°C° 0 mm 2 m/s 674 mmHg 88%
    02:00 +9°C° 0 mm 2 m/s 674 mmHg 87%
    03:00 +9°C° 0 mm 2 m/s 674 mmHg 86%
    04:00 +8°C° 0 mm 2 m/s 674 mmHg 84%
    05:00 +9°C° 0 mm 1 m/s 674 mmHg 82%
    06:00 +9°C° 0 mm 1 m/s 674 mmHg 80%
    07:00 +10°C° 0 mm 2 m/s 675 mmHg 68%
    08:00 +14°C° 0 mm 2 m/s 676 mmHg 56%
    09:00 +16°C° 0 mm 3 m/s 677 mmHg 44%
    10:00 +17°C° 0 mm 3 m/s 677 mmHg 42%
    11:00 +18°C° 0 mm 4 m/s 677 mmHg 39%
    12:00 +19°C° 0 mm 4 m/s 677 mmHg 37%
    13:00 +19°C° 0 mm 4 m/s 677 mmHg 36%
    14:00 +19°C° 0 mm 3 m/s 676 mmHg 36%
    15:00 +19°C° 0 mm 3 m/s 676 mmHg 35%
    16:00 +18°C° 0 mm 3 m/s 676 mmHg 39%
    17:00 +17°C° 0 mm 3 m/s 676 mmHg 43%
    18:00 +16°C° 0 mm 3 m/s 676 mmHg 47%
    19:00 +14°C° 0 mm 3 m/s 676 mmHg 50%
    20:00 +13°C° 0 mm 3 m/s 676 mmHg 52%
    21:00 +13°C° 0 mm 3 m/s 677 mmHg 55%
    22:00 +13°C° 0.1 mm 2 m/s 676 mmHg 59%
    23:00 +13°C° 0.1 mm 1 m/s 676 mmHg 63%
    Arată mai mult